Location: Brienzwiler
(46.7508°N, 8.1014°E)
Time: 17:11:45
(UTC+00:00)

Aureole 2 Rocket - Pass Details

Date: 05 July 2020
Orbit: 304 x 429 km, 73.9° (Epoch: 10 August)

Event Time Altitude Azimuth Distance (km) Brightness Sun altitude
Rises 22:48:28 0° 338° (NNW) 2,121 7.3 -19.9°
Reaches altitude 10° 22:50:23 10° 339° (NNW) 1,299 5.9 -19.9°
Enters shadow 22:52:46 60° 346° (NNW) 409 2.4 -20.0°
